Year,Month,Day,Hour,Minute,Value (Times are PST for temperature in C)
2016,03,30,00,00,8.20
2016,03,30,00,01,8.20
2016,03,30,00,02,8.20
2016,03,30,00,03,8.20
2016,03,30,00,04,8.20
2016,03,30,00,05,8.20
2016,03,30,00,06,8.20
2016,03,30,00,07,8.20
2016,03,30,00,08,8.20
2016,03,30,00,09,8.20
2016,03,30,00,10,8.20
2016,03,30,00,11,8.20
2016,03,30,00,12,8.20
2016,03,30,00,13,8.20
2016,03,30,00,14,8.20
2016,03,30,00,15,8.20
2016,03,30,00,16,8.20
2016,03,30,00,17,8.20
2016,03,30,00,18,8.20
2016,03,30,00,19,8.30
2016,03,30,00,20,8.30
2016,03,30,00,21,8.30
2016,03,30,00,22,8.30
2016,03,30,00,23,8.30
2016,03,30,00,24,8.30
2016,03,30,00,25,8.30
2016,03,30,00,26,8.30
2016,03,30,00,27,8.30
2016,03,30,00,28,8.40
2016,03,30,00,29,8.40
2016,03,30,00,30,8.40
2016,03,30,00,31,8.40
2016,03,30,00,32,8.40
2016,03,30,00,33,8.40
2016,03,30,00,34,8.40
2016,03,30,00,35,8.40
2016,03,30,00,36,8.40
2016,03,30,00,37,8.40
2016,03,30,00,38,8.40
2016,03,30,00,39,8.40
2016,03,30,00,40,8.30
2016,03,30,00,41,8.30
2016,03,30,00,42,8.30
2016,03,30,00,43,8.30
2016,03,30,00,44,8.20
2016,03,30,00,45,8.20
2016,03,30,00,46,8.20
2016,03,30,00,47,8.20
2016,03,30,00,48,8.10
2016,03,30,00,49,8.10
2016,03,30,00,50,8.10
2016,03,30,00,51,8.10
2016,03,30,00,52,8.10
2016,03,30,00,53,8.10
2016,03,30,00,54,8.10
2016,03,30,00,55,8.10
2016,03,30,00,56,8.10
2016,03,30,00,57,8.10
2016,03,30,00,58,8.00
2016,03,30,00,59,8.00
2016,03,30,01,00,8.10
2016,03,30,01,01,8.00
2016,03,30,01,02,8.00
2016,03,30,01,03,8.00
2016,03,30,01,04,8.00
2016,03,30,01,05,8.00
2016,03,30,01,06,7.90
2016,03,30,01,07,7.90
2016,03,30,01,08,7.90
2016,03,30,01,09,7.90
2016,03,30,01,10,7.90
2016,03,30,01,11,7.80
2016,03,30,01,12,7.80
2016,03,30,01,13,7.80
2016,03,30,01,14,7.80
2016,03,30,01,15,7.80
2016,03,30,01,16,7.80
2016,03,30,01,17,7.70
2016,03,30,01,18,7.70
2016,03,30,01,19,7.70
2016,03,30,01,20,7.70
2016,03,30,01,21,7.70
2016,03,30,01,22,7.70
2016,03,30,01,23,7.70
2016,03,30,01,24,7.70
2016,03,30,01,25,7.70
2016,03,30,01,26,7.70
2016,03,30,01,27,7.70
2016,03,30,01,28,7.70
2016,03,30,01,29,7.80
2016,03,30,01,30,7.80
2016,03,30,01,31,7.80
2016,03,30,01,32,7.80
2016,03,30,01,33,7.80
2016,03,30,01,34,7.90
2016,03,30,01,35,7.90
2016,03,30,01,36,8.00
2016,03,30,01,37,8.00
2016,03,30,01,38,8.10
2016,03,30,01,39,8.10
2016,03,30,01,40,8.10
2016,03,30,01,41,8.10
2016,03,30,01,42,8.10
2016,03,30,01,43,8.10
2016,03,30,01,44,8.10
2016,03,30,01,45,8.20
2016,03,30,01,46,8.20
2016,03,30,01,47,8.20
2016,03,30,01,48,8.20
2016,03,30,01,49,8.20
2016,03,30,01,50,8.20
2016,03,30,01,51,8.10
2016,03,30,01,52,8.10
2016,03,30,01,53,8.10
2016,03,30,01,54,8.10
2016,03,30,01,55,8.00
2016,03,30,01,56,8.00
2016,03,30,01,57,7.90
2016,03,30,01,58,7.90
2016,03,30,01,59,7.90
2016,03,30,02,00,7.90
2016,03,30,02,01,7.90
2016,03,30,02,02,7.90
2016,03,30,02,03,7.90
2016,03,30,02,04,7.90
2016,03,30,02,05,7.90
2016,03,30,02,06,7.90
2016,03,30,02,07,7.80
2016,03,30,02,08,7.80
2016,03,30,02,09,7.90
2016,03,30,02,10,7.90
2016,03,30,02,11,7.90
2016,03,30,02,12,7.90
2016,03,30,02,13,8.00
2016,03,30,02,14,8.00
2016,03,30,02,15,8.00
2016,03,30,02,16,8.10
2016,03,30,02,17,8.10
2016,03,30,02,18,8.10
2016,03,30,02,19,8.10
2016,03,30,02,20,8.10
2016,03,30,02,21,8.10
2016,03,30,02,22,8.10
2016,03,30,02,23,8.10
2016,03,30,02,24,8.10
2016,03,30,02,25,8.10
2016,03,30,02,26,8.10
2016,03,30,02,27,8.10
2016,03,30,02,28,8.00
2016,03,30,02,29,8.00
2016,03,30,02,30,8.00
2016,03,30,02,31,7.90
2016,03,30,02,32,7.90
2016,03,30,02,33,7.90
2016,03,30,02,34,7.80
2016,03,30,02,35,7.80
2016,03,30,02,36,7.80
2016,03,30,02,37,7.70
2016,03,30,02,38,7.70
2016,03,30,02,39,7.70
2016,03,30,02,40,7.60
2016,03,30,02,41,7.60
2016,03,30,02,42,7.50
2016,03,30,02,43,7.50
2016,03,30,02,44,7.40
2016,03,30,02,45,7.30
2016,03,30,02,46,7.20
2016,03,30,02,47,7.10
2016,03,30,02,48,7.10
2016,03,30,02,49,7.00
2016,03,30,02,50,7.00
2016,03,30,02,51,6.90
2016,03,30,02,52,6.90
2016,03,30,02,53,6.90
2016,03,30,02,54,6.80
2016,03,30,02,55,6.80
2016,03,30,02,56,6.80
2016,03,30,02,57,6.80
2016,03,30,02,58,6.90
2016,03,30,02,59,6.90
2016,03,30,03,00,6.90
2016,03,30,03,01,6.90
2016,03,30,03,02,6.90
2016,03,30,03,03,6.90
2016,03,30,03,04,6.90
2016,03,30,03,05,6.90
2016,03,30,03,06,6.90
2016,03,30,03,07,6.90
2016,03,30,03,08,6.90
2016,03,30,03,09,6.80
2016,03,30,03,10,6.80
2016,03,30,03,11,6.80
2016,03,30,03,12,6.80
2016,03,30,03,13,6.70
2016,03,30,03,14,6.70
2016,03,30,03,15,6.70
2016,03,30,03,16,6.70
2016,03,30,03,17,6.70
2016,03,30,03,18,6.70
2016,03,30,03,19,6.70
2016,03,30,03,20,6.70
2016,03,30,03,21,6.70
2016,03,30,03,22,6.70
2016,03,30,03,23,6.60
2016,03,30,03,24,6.60
2016,03,30,03,25,6.50
2016,03,30,03,26,6.50
2016,03,30,03,27,6.40
2016,03,30,03,28,6.40
2016,03,30,03,29,6.30
2016,03,30,03,30,6.30
2016,03,30,03,31,6.30
2016,03,30,03,32,6.30
2016,03,30,03,33,6.30
2016,03,30,03,34,6.30
2016,03,30,03,35,6.30
2016,03,30,03,36,6.30
2016,03,30,03,37,6.30
2016,03,30,03,38,6.30
2016,03,30,03,39,6.30
2016,03,30,03,40,6.30
2016,03,30,03,41,6.30
2016,03,30,03,42,6.30
2016,03,30,03,43,6.30
2016,03,30,03,44,6.30
2016,03,30,03,45,6.40
2016,03,30,03,46,6.40
2016,03,30,03,47,6.50
2016,03,30,03,48,6.50
2016,03,30,03,49,6.50
2016,03,30,03,50,6.40
2016,03,30,03,51,6.40
2016,03,30,03,52,6.30
2016,03,30,03,53,6.30
2016,03,30,03,54,6.20
2016,03,30,03,55,6.20
2016,03,30,03,56,6.10
2016,03,30,03,57,6.10
2016,03,30,03,58,6.10
2016,03,30,03,59,6.10
2016,03,30,04,00,6.10
2016,03,30,04,01,6.10
2016,03,30,04,02,6.10
2016,03,30,04,03,6.10
2016,03,30,04,04,6.10
2016,03,30,04,05,6.10
2016,03,30,04,06,6.10
2016,03,30,04,07,6.10
2016,03,30,04,08,6.10
2016,03,30,04,09,6.10
2016,03,30,04,10,6.00
2016,03,30,04,11,6.00
2016,03,30,04,12,6.00
2016,03,30,04,13,5.90
2016,03,30,04,14,5.90
2016,03,30,04,15,5.90
2016,03,30,04,16,5.90
2016,03,30,04,17,5.80
2016,03,30,04,18,5.80
2016,03,30,04,19,5.80
2016,03,30,04,20,5.80
2016,03,30,04,21,5.70
2016,03,30,04,22,5.70
2016,03,30,04,23,5.70
2016,03,30,04,24,5.70
2016,03,30,04,25,5.60
2016,03,30,04,26,5.60
2016,03,30,04,27,5.60
2016,03,30,04,28,5.60
2016,03,30,04,29,5.50
2016,03,30,04,30,5.50
2016,03,30,04,31,5.50
2016,03,30,04,32,5.40
2016,03,30,04,33,5.40
2016,03,30,04,34,5.40
2016,03,30,04,35,5.40
2016,03,30,04,36,5.30
2016,03,30,04,37,5.30
2016,03,30,04,38,5.30
2016,03,30,04,39,5.30
2016,03,30,04,40,5.30
2016,03,30,04,41,5.30
2016,03,30,04,42,5.30
2016,03,30,04,43,5.30
2016,03,30,04,44,5.30
2016,03,30,04,45,5.30
2016,03,30,04,46,5.40
2016,03,30,04,47,5.40
2016,03,30,04,48,5.40
2016,03,30,04,49,5.40
2016,03,30,04,50,5.40
2016,03,30,04,51,5.40
2016,03,30,04,52,5.30
2016,03,30,04,53,5.30
2016,03,30,04,54,5.30
2016,03,30,04,55,5.30
2016,03,30,04,56,5.20
2016,03,30,04,57,5.20
2016,03,30,04,58,5.20
2016,03,30,04,59,5.20
2016,03,30,05,00,5.20
2016,03,30,05,01,5.20
2016,03,30,05,02,5.20
2016,03,30,05,03,5.20
2016,03,30,05,04,5.20
2016,03,30,05,05,5.30
2016,03,30,05,06,5.30
2016,03,30,05,07,5.30
2016,03,30,05,08,5.30
2016,03,30,05,09,5.30
2016,03,30,05,10,5.20
2016,03,30,05,11,5.20
2016,03,30,05,12,5.10
2016,03,30,05,13,5.10
2016,03,30,05,14,5.10
2016,03,30,05,15,5.10
2016,03,30,05,16,5.10
2016,03,30,05,17,5.10
2016,03,30,05,18,5.10
2016,03,30,05,19,5.10
2016,03,30,05,20,5.10
2016,03,30,05,21,5.10
2016,03,30,05,22,5.00
2016,03,30,05,23,5.00
2016,03,30,05,24,4.90
2016,03,30,05,25,4.90
2016,03,30,05,26,4.90
2016,03,30,05,27,4.90
2016,03,30,05,28,4.90
2016,03,30,05,29,4.90
2016,03,30,05,30,4.90
2016,03,30,05,31,4.90
2016,03,30,05,32,4.90
2016,03,30,05,33,4.90
2016,03,30,05,34,4.90
2016,03,30,05,35,4.90
2016,03,30,05,36,4.90
2016,03,30,05,37,4.90
2016,03,30,05,38,4.80
2016,03,30,05,39,4.80
2016,03,30,05,40,4.80
2016,03,30,05,41,4.80
2016,03,30,05,42,4.80
2016,03,30,05,43,4.70
2016,03,30,05,44,4.70
2016,03,30,05,45,4.70
2016,03,30,05,46,4.70
2016,03,30,05,47,4.70
2016,03,30,05,48,4.70
2016,03,30,05,49,4.70
2016,03,30,05,50,4.70
2016,03,30,05,51,4.70
2016,03,30,05,52,4.70
2016,03,30,05,53,4.70
2016,03,30,05,54,4.70
2016,03,30,05,55,4.70
2016,03,30,05,56,4.60
2016,03,30,05,57,4.60
2016,03,30,05,58,4.60
2016,03,30,05,59,4.70
2016,03,30,06,00,4.70
2016,03,30,06,01,4.70
2016,03,30,06,02,4.80
2016,03,30,06,03,4.80
2016,03,30,06,04,4.80
2016,03,30,06,05,4.80
2016,03,30,06,06,4.80
2016,03,30,06,07,4.80
2016,03,30,06,08,4.80
2016,03,30,06,09,4.80
2016,03,30,06,10,4.70
2016,03,30,06,11,4.70
2016,03,30,06,12,4.70
2016,03,30,06,13,4.70
2016,03,30,06,14,4.60
2016,03,30,06,15,4.60
2016,03,30,06,16,4.60
2016,03,30,06,17,4.60
2016,03,30,06,18,4.60
2016,03,30,06,19,4.60
2016,03,30,06,20,4.50
2016,03,30,06,21,4.50
2016,03,30,06,22,4.50
2016,03,30,06,23,4.60
2016,03,30,06,24,4.60
2016,03,30,06,25,4.70
2016,03,30,06,26,4.80
2016,03,30,06,27,4.80
2016,03,30,06,28,4.90
2016,03,30,06,29,4.90
2016,03,30,06,30,4.90
2016,03,30,06,31,4.90
2016,03,30,06,32,4.80
2016,03,30,06,33,4.80
2016,03,30,06,34,4.80
2016,03,30,06,35,4.80
2016,03,30,06,36,4.80
2016,03,30,06,37,4.90
2016,03,30,06,38,4.90
2016,03,30,06,39,4.90
2016,03,30,06,40,4.90
2016,03,30,06,41,4.90
2016,03,30,06,42,4.90
2016,03,30,06,43,4.90
2016,03,30,06,44,4.90
2016,03,30,06,45,4.90
2016,03,30,06,46,4.90
2016,03,30,06,47,5.00
2016,03,30,06,48,5.00
2016,03,30,06,49,5.00
2016,03,30,06,50,5.00
2016,03,30,06,51,5.10
2016,03,30,06,52,5.10
2016,03,30,06,53,5.10
2016,03,30,06,54,5.20
2016,03,30,06,55,5.20
2016,03,30,06,56,5.20
2016,03,30,06,57,5.20
2016,03,30,06,58,5.20
2016,03,30,06,59,5.20
2016,03,30,07,00,5.10
2016,03,30,07,01,5.10
2016,03,30,07,02,4.90
2016,03,30,07,03,4.90
2016,03,30,07,04,4.80
2016,03,30,07,05,4.70
2016,03,30,07,06,4.60
2016,03,30,07,07,4.60
2016,03,30,07,08,4.50
2016,03,30,07,09,4.50
2016,03,30,07,10,4.40
2016,03,30,07,11,4.40
2016,03,30,07,12,4.30
2016,03,30,07,13,4.30
2016,03,30,07,14,4.30
2016,03,30,07,15,4.30
2016,03,30,07,16,4.30
2016,03,30,07,17,4.30
2016,03,30,07,18,4.30
2016,03,30,07,19,4.40
2016,03,30,07,20,4.40
2016,03,30,07,21,4.40
2016,03,30,07,22,4.50
2016,03,30,07,23,4.50
2016,03,30,07,24,4.50
2016,03,30,07,25,4.60
2016,03,30,07,26,4.60
2016,03,30,07,27,4.60
2016,03,30,07,28,4.60
2016,03,30,07,29,4.60
2016,03,30,07,30,4.60
2016,03,30,07,31,4.60
2016,03,30,07,32,4.60
2016,03,30,07,33,4.50
2016,03,30,07,34,4.50
2016,03,30,07,35,4.50
2016,03,30,07,36,4.50
2016,03,30,07,37,4.50
2016,03,30,07,38,4.40
2016,03,30,07,39,4.40
2016,03,30,07,40,4.40
2016,03,30,07,41,4.40
2016,03,30,07,42,4.40
2016,03,30,07,43,4.40
2016,03,30,07,44,4.40
2016,03,30,07,45,4.30
2016,03,30,07,46,4.30
2016,03,30,07,47,4.30
2016,03,30,07,48,4.30
2016,03,30,07,49,4.30
2016,03,30,07,50,4.30
2016,03,30,07,51,4.30
2016,03,30,07,52,4.30
2016,03,30,07,53,4.40
2016,03,30,07,54,4.40
2016,03,30,07,55,4.50
2016,03,30,07,56,4.50
2016,03,30,07,57,4.60
2016,03,30,07,58,4.70
2016,03,30,07,59,4.70
2016,03,30,08,00,4.70
2016,03,30,08,01,4.80
2016,03,30,08,02,4.80
2016,03,30,08,03,4.80
2016,03,30,08,04,4.90
2016,03,30,08,05,4.90
2016,03,30,08,06,5.00
2016,03,30,08,07,5.00
2016,03,30,08,08,5.10
2016,03,30,08,09,5.20
2016,03,30,08,10,5.20
2016,03,30,08,11,5.30
2016,03,30,08,12,5.30
2016,03,30,08,13,5.30
2016,03,30,08,14,5.40
2016,03,30,08,15,5.50
2016,03,30,08,16,5.60
2016,03,30,08,17,5.60
2016,03,30,08,18,5.70
2016,03,30,08,19,5.70
2016,03,30,08,20,5.80
2016,03,30,08,21,5.80
2016,03,30,08,22,5.90
2016,03,30,08,23,6.00
2016,03,30,08,24,6.10
2016,03,30,08,25,6.20
2016,03,30,08,26,6.20
2016,03,30,08,27,6.30
2016,03,30,08,28,6.40
2016,03,30,08,29,6.50
2016,03,30,08,30,6.60
2016,03,30,08,31,6.60
2016,03,30,08,32,6.70
2016,03,30,08,33,6.80
2016,03,30,08,34,6.90
2016,03,30,08,35,7.00
2016,03,30,08,36,7.10
2016,03,30,08,37,7.20
2016,03,30,08,38,7.30
2016,03,30,08,39,7.40
2016,03,30,08,40,7.50
2016,03,30,08,41,7.60
2016,03,30,08,42,7.70
2016,03,30,08,43,7.80
2016,03,30,08,44,7.90
2016,03,30,08,45,8.00
2016,03,30,08,46,8.10
2016,03,30,08,47,8.10
2016,03,30,08,48,8.20
2016,03,30,08,49,8.30
2016,03,30,08,50,8.40
2016,03,30,08,51,8.50
2016,03,30,08,52,8.60
2016,03,30,08,53,8.70
2016,03,30,08,54,8.80
2016,03,30,08,55,8.90
2016,03,30,08,56,9.00
2016,03,30,08,57,9.10
2016,03,30,08,58,9.20
2016,03,30,08,59,9.30
2016,03,30,09,00,9.40
2016,03,30,09,01,9.40
2016,03,30,09,02,9.50
2016,03,30,09,03,9.60
2016,03,30,09,04,9.70
2016,03,30,09,05,9.70
2016,03,30,09,06,9.80
2016,03,30,09,07,9.90
2016,03,30,09,08,10.00
2016,03,30,09,09,10.10
2016,03,30,09,10,10.10
2016,03,30,09,11,10.20
2016,03,30,09,12,10.30
2016,03,30,09,13,10.40
2016,03,30,09,14,10.50
2016,03,30,09,15,10.60
2016,03,30,09,16,10.60
2016,03,30,09,17,10.70
2016,03,30,09,18,10.70
2016,03,30,09,19,10.70
2016,03,30,09,20,10.80
2016,03,30,09,21,10.80
2016,03,30,09,22,10.80
2016,03,30,09,23,10.80
2016,03,30,09,24,10.70
2016,03,30,09,25,10.60
2016,03,30,09,26,10.60
2016,03,30,09,27,10.50
2016,03,30,09,28,10.40
2016,03,30,09,29,10.30
2016,03,30,09,30,10.30
2016,03,30,09,31,10.20
2016,03,30,09,32,10.10
2016,03,30,09,33,10.00
2016,03,30,09,34,10.00
2016,03,30,09,35,9.90
2016,03,30,09,36,9.90
2016,03,30,09,37,9.90
2016,03,30,09,38,9.90
2016,03,30,09,39,9.90
2016,03,30,09,40,9.90
2016,03,30,09,41,9.80
2016,03,30,09,42,9.80
2016,03,30,09,43,9.80
2016,03,30,09,44,9.80
2016,03,30,09,45,9.80
2016,03,30,09,46,9.80
2016,03,30,09,47,9.90
2016,03,30,09,48,9.90
2016,03,30,09,49,10.00
2016,03,30,09,50,10.00
2016,03,30,09,51,10.10
2016,03,30,09,52,10.20
2016,03,30,09,53,10.20
2016,03,30,09,54,10.30
2016,03,30,09,55,10.30
2016,03,30,09,56,10.40
2016,03,30,09,57,10.50
2016,03,30,09,58,10.60
2016,03,30,09,59,10.60
2016,03,30,10,00,10.70
2016,03,30,10,01,10.70
2016,03,30,10,02,10.80
2016,03,30,10,03,10.90
2016,03,30,10,04,10.90
2016,03,30,10,05,11.00
2016,03,30,10,06,11.10
2016,03,30,10,07,11.10
2016,03,30,10,08,11.20
2016,03,30,10,09,11.20
2016,03,30,10,10,11.30
2016,03,30,10,11,11.30
2016,03,30,10,12,11.40
2016,03,30,10,13,11.40
2016,03,30,10,14,11.50
2016,03,30,10,15,11.50
2016,03,30,10,16,11.60
2016,03,30,10,17,11.60
2016,03,30,10,18,11.70
2016,03,30,10,19,11.70
2016,03,30,10,20,11.80
2016,03,30,10,21,11.80
2016,03,30,10,22,11.90
2016,03,30,10,23,12.00
2016,03,30,10,24,12.00
2016,03,30,10,25,12.10
2016,03,30,10,26,12.10
2016,03,30,10,27,12.20
2016,03,30,10,28,12.20
2016,03,30,10,29,12.20
2016,03,30,10,30,12.20
2016,03,30,10,31,12.30
2016,03,30,10,32,12.30
2016,03,30,10,33,12.30
2016,03,30,10,34,12.40
2016,03,30,10,35,12.40
2016,03,30,10,36,12.50
2016,03,30,10,37,12.50
2016,03,30,10,38,12.60
2016,03,30,10,39,12.70
2016,03,30,10,40,12.80
2016,03,30,10,41,12.80
2016,03,30,10,42,12.90
2016,03,30,10,43,12.90
2016,03,30,10,44,12.90
2016,03,30,10,45,13.00
2016,03,30,10,46,13.00
2016,03,30,10,47,13.10
2016,03,30,10,48,13.20
2016,03,30,10,49,13.30
2016,03,30,10,50,13.30
2016,03,30,10,51,13.30
2016,03,30,10,52,13.30
2016,03,30,10,53,13.30
2016,03,30,10,54,13.30
2016,03,30,10,55,13.30
2016,03,30,10,56,13.40
2016,03,30,10,57,13.50
2016,03,30,10,58,13.50
2016,03,30,10,59,13.60
2016,03,30,11,00,13.60
2016,03,30,11,01,13.70
2016,03,30,11,02,13.70
2016,03,30,11,03,13.70
2016,03,30,11,04,13.80
2016,03,30,11,05,13.80
2016,03,30,11,06,13.90
2016,03,30,11,07,13.90
2016,03,30,11,08,14.00
2016,03,30,11,09,14.10
2016,03,30,11,10,14.10
2016,03,30,11,11,14.20
2016,03,30,11,12,14.30
2016,03,30,11,13,14.40
2016,03,30,11,14,14.40
2016,03,30,11,15,14.50
2016,03,30,11,16,14.60
2016,03,30,11,17,14.60
2016,03,30,11,18,14.60
2016,03,30,11,19,14.60
2016,03,30,11,20,14.60
2016,03,30,11,21,14.60
2016,03,30,11,22,14.60
2016,03,30,11,23,14.60
2016,03,30,11,24,14.50
2016,03,30,11,25,14.60
2016,03,30,11,26,14.60
2016,03,30,11,27,14.60
2016,03,30,11,28,14.60
2016,03,30,11,29,14.60
2016,03,30,11,30,14.60
2016,03,30,11,31,14.60
2016,03,30,11,32,14.60
2016,03,30,11,33,14.50
2016,03,30,11,34,14.50
2016,03,30,11,35,14.50
2016,03,30,11,36,14.50
2016,03,30,11,37,14.40
2016,03,30,11,38,14.40
2016,03,30,11,39,14.40
2016,03,30,11,40,14.30
2016,03,30,11,41,14.30
2016,03,30,11,42,14.30
2016,03,30,11,43,14.30
2016,03,30,11,44,14.30
2016,03,30,11,45,14.30
2016,03,30,11,46,14.30
2016,03,30,11,47,14.30
2016,03,30,11,48,14.30
2016,03,30,11,49,14.40
2016,03,30,11,50,14.40
2016,03,30,11,51,14.50
2016,03,30,11,52,14.50
2016,03,30,11,53,14.60
2016,03,30,11,54,14.60
2016,03,30,11,55,14.60
2016,03,30,11,56,14.60
2016,03,30,11,57,14.60
2016,03,30,11,58,14.60
2016,03,30,11,59,14.70
2016,03,30,12,00,14.70
2016,03,30,12,01,14.80
2016,03,30,12,02,14.80
2016,03,30,12,03,14.90
2016,03,30,12,04,14.90
2016,03,30,12,05,14.90
2016,03,30,12,06,14.90
2016,03,30,12,07,14.90
2016,03,30,12,08,14.80
2016,03,30,12,09,14.80
2016,03,30,12,10,14.80
2016,03,30,12,11,14.80
2016,03,30,12,12,14.80
2016,03,30,12,13,14.80
2016,03,30,12,14,14.80
2016,03,30,12,15,14.80
2016,03,30,12,16,14.80
2016,03,30,12,17,14.80
2016,03,30,12,18,14.90
2016,03,30,12,19,14.90
2016,03,30,12,20,15.00
2016,03,30,12,21,15.00
2016,03,30,12,22,15.10
2016,03,30,12,23,15.10
2016,03,30,12,24,15.10
2016,03,30,12,25,15.10
2016,03,30,12,26,15.10
2016,03,30,12,27,15.10
2016,03,30,12,28,15.10
2016,03,30,12,29,15.10
2016,03,30,12,30,15.10
2016,03,30,12,31,15.10
2016,03,30,12,32,15.20
2016,03,30,12,33,15.20
2016,03,30,12,34,15.20
2016,03,30,12,35,15.30
2016,03,30,12,36,15.30
2016,03,30,12,37,15.30
2016,03,30,12,38,15.30
2016,03,30,12,39,15.30
2016,03,30,12,40,15.30
2016,03,30,12,41,15.30
2016,03,30,12,42,15.30
2016,03,30,12,43,15.30
2016,03,30,12,44,15.30
2016,03,30,12,45,15.30
2016,03,30,12,46,15.30
2016,03,30,12,47,15.40
2016,03,30,12,48,15.40
2016,03,30,12,49,15.50
2016,03,30,12,50,15.60
2016,03,30,12,51,15.60
2016,03,30,12,52,15.60
2016,03,30,12,53,15.70
2016,03,30,12,54,15.70
2016,03,30,12,55,15.80
2016,03,30,12,56,15.90
2016,03,30,12,57,15.90
2016,03,30,12,58,15.90
2016,03,30,12,59,15.90
2016,03,30,13,00,15.90
2016,03,30,13,01,15.90
2016,03,30,13,02,15.90
2016,03,30,13,03,15.90
2016,03,30,13,04,15.90
2016,03,30,13,05,15.90
2016,03,30,13,06,15.90
2016,03,30,13,07,15.90
2016,03,30,13,08,15.80
2016,03,30,13,09,15.80
2016,03,30,13,10,15.80
2016,03,30,13,11,15.80
2016,03,30,13,12,15.80
2016,03,30,13,13,15.80
2016,03,30,13,14,15.90
2016,03,30,13,15,15.90
2016,03,30,13,16,15.90
2016,03,30,13,17,15.90
2016,03,30,13,18,15.80
2016,03,30,13,19,15.80
2016,03,30,13,20,15.70
2016,03,30,13,21,15.70
2016,03,30,13,22,15.70
2016,03,30,13,23,15.70
2016,03,30,13,24,15.80
2016,03,30,13,25,15.80
2016,03,30,13,26,15.80
2016,03,30,13,27,15.90
2016,03,30,13,28,15.90
2016,03,30,13,29,15.90
2016,03,30,13,30,15.90
2016,03,30,13,31,15.90
2016,03,30,13,32,16.00
2016,03,30,13,33,16.10
2016,03,30,13,34,16.10
2016,03,30,13,35,16.10
2016,03,30,13,36,16.10
2016,03,30,13,37,16.10
2016,03,30,13,38,16.10
2016,03,30,13,39,16.20
2016,03,30,13,40,16.30
2016,03,30,13,41,16.40
2016,03,30,13,42,16.40
2016,03,30,13,43,16.40
2016,03,30,13,44,16.40
2016,03,30,13,45,16.40
2016,03,30,13,46,16.40
2016,03,30,13,47,16.50
2016,03,30,13,48,16.50
2016,03,30,13,49,16.50
2016,03,30,13,50,16.50
2016,03,30,13,51,16.60
2016,03,30,13,52,16.60
2016,03,30,13,53,16.60
2016,03,30,13,54,16.70
2016,03,30,13,55,16.70
2016,03,30,13,56,16.70
2016,03,30,13,57,16.70
2016,03,30,13,58,16.70
2016,03,30,13,59,16.70
2016,03,30,14,00,16.70
2016,03,30,14,01,16.70
2016,03,30,14,02,16.70
2016,03,30,14,03,16.70
2016,03,30,14,04,16.70
2016,03,30,14,05,16.70
2016,03,30,14,06,16.70
2016,03,30,14,07,16.70
2016,03,30,14,08,16.70
2016,03,30,14,09,16.70
2016,03,30,14,10,16.70
2016,03,30,14,11,16.70
2016,03,30,14,12,16.70
2016,03,30,14,13,16.70
2016,03,30,14,14,16.70
2016,03,30,14,15,16.70
2016,03,30,14,16,16.70
2016,03,30,14,17,16.80
2016,03,30,14,18,16.70
2016,03,30,14,19,16.70
2016,03,30,14,20,16.70
2016,03,30,14,21,16.70
2016,03,30,14,22,16.70
2016,03,30,14,23,16.70
2016,03,30,14,24,16.70
2016,03,30,14,25,16.70
2016,03,30,14,26,16.80
2016,03,30,14,27,16.80
2016,03,30,14,28,16.80
2016,03,30,14,29,16.80
2016,03,30,14,30,16.80
2016,03,30,14,31,16.80
2016,03,30,14,32,16.90
2016,03,30,14,33,16.90
2016,03,30,14,34,17.00
2016,03,30,14,35,17.00
2016,03,30,14,36,17.00
2016,03,30,14,37,17.00
2016,03,30,14,38,17.10
2016,03,30,14,39,17.10
2016,03,30,14,40,17.10
2016,03,30,14,41,17.10
2016,03,30,14,42,17.10
2016,03,30,14,43,17.00
2016,03,30,14,44,17.00
2016,03,30,14,45,16.90
2016,03,30,14,46,16.90
2016,03,30,14,47,16.80
2016,03,30,14,48,16.80
2016,03,30,14,49,16.80
2016,03,30,14,50,16.80
2016,03,30,14,51,16.80
2016,03,30,14,52,16.80
2016,03,30,14,53,16.90
2016,03,30,14,54,16.90
2016,03,30,14,55,16.90
2016,03,30,14,56,16.90
2016,03,30,14,57,16.90
2016,03,30,14,58,17.00
2016,03,30,14,59,17.10
2016,03,30,15,00,17.20
2016,03,30,15,01,17.20
2016,03,30,15,02,17.30
2016,03,30,15,03,17.40
2016,03,30,15,04,17.40
2016,03,30,15,05,17.40
2016,03,30,15,06,17.40
2016,03,30,15,07,17.40
2016,03,30,15,08,17.40
2016,03,30,15,09,17.40
2016,03,30,15,10,17.40
2016,03,30,15,11,17.40
2016,03,30,15,12,17.40
2016,03,30,15,13,17.40
2016,03,30,15,14,17.40
2016,03,30,15,15,17.50
2016,03,30,15,16,17.50
2016,03,30,15,17,17.50
2016,03,30,15,18,17.50
2016,03,30,15,19,17.50
2016,03,30,15,20,17.40
2016,03,30,15,21,17.50
2016,03,30,15,22,17.50
2016,03,30,15,23,17.50
2016,03,30,15,24,17.50
2016,03,30,15,25,17.50
2016,03,30,15,26,17.60
2016,03,30,15,27,17.60
2016,03,30,15,28,17.70
2016,03,30,15,29,17.70
2016,03,30,15,30,17.70
2016,03,30,15,31,17.70
2016,03,30,15,32,17.70
2016,03,30,15,33,17.70
2016,03,30,15,34,17.80
2016,03,30,15,35,17.90
2016,03,30,15,36,18.00
2016,03,30,15,37,18.00
2016,03,30,15,38,18.10
2016,03,30,15,39,18.10
2016,03,30,15,40,18.10
2016,03,30,15,41,18.10
2016,03,30,15,42,18.10
2016,03,30,15,43,18.10
2016,03,30,15,44,18.20
2016,03,30,15,45,18.20
2016,03,30,15,46,18.10
2016,03,30,15,47,18.10
2016,03,30,15,48,18.10
2016,03,30,15,49,18.10
2016,03,30,15,50,18.10
2016,03,30,15,51,18.00
2016,03,30,15,52,18.10
2016,03,30,15,53,18.10
2016,03,30,15,54,18.10
2016,03,30,15,55,18.10
2016,03,30,15,56,18.10
2016,03,30,15,57,18.10
2016,03,30,15,58,18.10
2016,03,30,15,59,18.10
2016,03,30,16,00,18.10
2016,03,30,16,01,18.10
2016,03,30,16,02,18.20
2016,03,30,16,03,18.20
2016,03,30,16,04,18.30
2016,03,30,16,05,18.30
2016,03,30,16,06,18.40
2016,03,30,16,07,18.40
2016,03,30,16,08,18.40
2016,03,30,16,09,18.40
2016,03,30,16,10,18.30
2016,03,30,16,11,18.30
2016,03,30,16,12,18.30
2016,03,30,16,13,18.20
2016,03,30,16,14,18.20
2016,03,30,16,15,18.20
2016,03,30,16,16,18.20
2016,03,30,16,17,18.20
2016,03,30,16,18,18.20
2016,03,30,16,19,18.10
2016,03,30,16,20,18.10
2016,03,30,16,21,18.10
2016,03,30,16,22,18.10
2016,03,30,16,23,18.20
2016,03,30,16,24,18.20
2016,03,30,16,25,18.20
2016,03,30,16,26,18.20
2016,03,30,16,27,18.20
2016,03,30,16,28,18.20
2016,03,30,16,29,18.20
2016,03,30,16,30,18.20
2016,03,30,16,31,18.30
2016,03,30,16,32,18.30
2016,03,30,16,33,18.30
2016,03,30,16,34,18.40
2016,03,30,16,35,18.40
2016,03,30,16,36,18.50
2016,03,30,16,37,18.50
2016,03,30,16,38,18.60
2016,03,30,16,39,18.60
2016,03,30,16,40,18.70
2016,03,30,16,41,18.80
2016,03,30,16,42,18.80
2016,03,30,16,43,18.80
2016,03,30,16,44,18.90
2016,03,30,16,45,18.90
2016,03,30,16,46,18.90
2016,03,30,16,47,18.90
2016,03,30,16,48,18.90
2016,03,30,16,49,18.90
2016,03,30,16,50,18.90
2016,03,30,16,51,18.90
2016,03,30,16,52,18.90
2016,03,30,16,53,18.90
2016,03,30,16,54,18.90
2016,03,30,16,55,18.90
2016,03,30,16,56,19.00
2016,03,30,16,57,19.00
2016,03,30,16,58,19.00
2016,03,30,16,59,19.00
2016,03,30,17,00,19.10
2016,03,30,17,01,19.10
2016,03,30,17,02,19.10
2016,03,30,17,03,19.10
2016,03,30,17,04,19.00
2016,03,30,17,05,19.00
2016,03,30,17,06,19.00
2016,03,30,17,07,18.90
2016,03,30,17,08,18.90
2016,03,30,17,09,18.90
2016,03,30,17,10,18.90
2016,03,30,17,11,18.90
2016,03,30,17,12,18.90
2016,03,30,17,13,18.90
2016,03,30,17,14,18.90
2016,03,30,17,15,18.90
2016,03,30,17,16,19.00
2016,03,30,17,17,19.00
2016,03,30,17,18,19.10
2016,03,30,17,19,19.10
2016,03,30,17,20,19.10
2016,03,30,17,21,19.20
2016,03,30,17,22,19.20
2016,03,30,17,23,19.20
2016,03,30,17,24,19.30
2016,03,30,17,25,19.30
2016,03,30,17,26,19.30
2016,03,30,17,27,19.30
2016,03,30,17,28,19.20
2016,03,30,17,29,19.20
2016,03,30,17,30,19.20
2016,03,30,17,31,19.10
2016,03,30,17,32,19.10
2016,03,30,17,33,19.10
2016,03,30,17,34,19.10
2016,03,30,17,35,19.10
2016,03,30,17,36,19.10
2016,03,30,17,37,19.10
2016,03,30,17,38,19.10
2016,03,30,17,39,19.10
2016,03,30,17,40,19.10
2016,03,30,17,41,19.10
2016,03,30,17,42,19.00
2016,03,30,17,43,19.00